Location: Newton_East
(35.6670°N, 81.2000°W)
Time: 12:22:59
(UTC-05:00)

ISS - Visible Passes

Search period start: 26 November 2014 00:00
Search period end: 06 December 2014 00:00
Orbit: 407 x 417 km, 51.6° (Epoch: 26 November)

Date Brightness Start Highest point End Pass type
(mag) Time Alt. Az. Time Alt. Az. Time Alt. Az.
26 Nov -1.9 06:02:30 15° NNW 06:04:43 33° NE 06:07:45 10° ESE visible
27 Nov -1.1 05:14:59 20° NE 05:14:59 20° NE 05:17:23 10° E visible
28 Nov -3.4 06:00:23 29° NW 06:01:55 83° SW 06:05:12 10° SE visible
29 Nov -1.8 05:13:01 37° E 05:13:01 37° E 05:15:22 10° ESE visible
29 Nov -1.0 06:46:53 10° W 06:48:29 13° SW 06:50:04 10° SSW visible
30 Nov -2.0 05:58:35 24° WSW 05:58:55 25° SW 06:01:40 10° S visible
01 Dec -0.9 05:11:22 19° SSE 05:11:22 19° SSE 05:12:28 10° SSE visible
04 Dec -0.5 19:16:41 10° SSW 19:17:02 12° SSW 19:17:02 12° SSW visible
05 Dec -1.3 18:27:55 10° S 18:29:50 16° SE 18:29:50 16° SE visible
